This is the latest recevied weather packets stored in our database for station/object K6GMW. If no packets are shown the sender has not sent any weather packets the latest 10 day(s).
| Time | Temp. | Humidity | Pressure | Rain* | Wind** | Luminosity | Snow |
|---|---|---|---|---|---|---|---|
| 1777674796 | 16.11° C | 69% | 1016.4 hPa | 0 mm | - | 67 W/m² | - |
| 1777674492 | 16.11° C | 70% | 1016.4 hPa | 0 mm | - | 77 W/m² | - |
| 1777674191 | 16.11° C | 69% | 1016.2 hPa | 0 mm | - | 120 W/m² | - |
| 1777673887 | 16.11° C | 69% | 1015.7 hPa | 0 mm | - | 125 W/m² | - |
| 1777673583 | 16.11° C | 69% | 1015.5 hPa | 0 mm | - | 121 W/m² | - |
| 1777673281 | 16.11° C | 70% | 1015.2 hPa | 0 mm | - | 128 W/m² | - |
| 1777672978 | 16.11° C | 70% | 1015.3 hPa | 0 mm | - | 160 W/m² | - |
| 1777672675 | 16.67° C | 71% | 1014.9 hPa | 0 mm | - | 166 W/m² | - |
| 1777672370 | 16.67° C | 69% | 1015 hPa | 0 mm | - | 235 W/m² | - |
| 1777672066 | 16.67° C | 69% | 1015.2 hPa | 0 mm | - | 305 W/m² | - |
| 1777671762 | 16.67° C | 71% | 1015.2 hPa | 0 mm | - | 316 W/m² | - |
| 1777671458 | 16.67° C | 70% | 1015.4 hPa | 0 mm | - | 240 W/m² | - |
| 1777671155 | 16.67° C | 71% | 1015.4 hPa | 0 mm | - | 238 W/m² | - |
| 1777670851 | 16.11° C | 71% | 1015.4 hPa | 0 mm | - | 206 W/m² | - |
| 1777670547 | 16.11° C | 70% | 1015.6 hPa | 0 mm | - | 179 W/m² | - |
| 1777670245 | 16.11° C | 71% | 1015.7 hPa | 0 mm | - | 200 W/m² | - |
| 1777669942 | 16.11° C | 70% | 1016 hPa | 0 mm | - | 189 W/m² | - |
| 1777669639 | 15.56° C | 68% | 1016.2 hPa | 0 mm | - | 202 W/m² | - |
| 1777669335 | 15.56° C | 69% | 1016.4 hPa | 0 mm | - | 139 W/m² | - |
| 1777669032 | 16.11° C | 69% | 1016.9 hPa | 0 mm | - | 103 W/m² | - |
| 1777668729 | 16.11° C | 71% | 1016.9 hPa | 0 mm | - | 112 W/m² | - |
| 1777668426 | 16.11° C | 69% | 1016.9 hPa | 0 mm | - | 121 W/m² | - |
| 1777668122 | 16.11° C | 69% | 1016.5 hPa | 0 mm | - | 176 W/m² | - |
| 1777667818 | 16.11° C | 69% | 1016.2 hPa | 0 mm | - | 263 W/m² | - |
| 1777667516 | 16.11° C | 70% | 1016.2 hPa | 0 mm | - | 278 W/m² | - |
* Rain latest hour (hover to see other rain measurements)
** Current wind speed in m/s (hover to see current wind gust speed)